Startseite
Über Mich
AHP4
Galerie
Sehschlangen
Tourenbuch
Bookmarks
Elektronik
Bewertung
Geschichten
[Tagesmessung] [Jahreswerte] [Information]

Messwerte vom 27.09.2022

Die letzten Messwerte von 23:58:49 Uhr:
KategorieMesswert
Temperatur [°C]8
Luftdruck [mBar]980
Sonneneinstrahlung0
Wind [km/h]0 aus Südost
Niederschlag [l/m²]0
rel.Luftfeucht.96.6%
CO2 [ppm]880

Diagramme
Messwerte vom 27.09.2022
Tagesaggregation
KategorieMinimumMaximumSchnittSumme
Temperatur [°C]81410.0104
Luftdruck [mBar]976982978.7958
Sonneneinstrahlung24892.5896
Wind [km/h]12
rF [%]85.296.695.94
Niederschlag [l/m²]6.695
CO2 [ppm]4021165784.6
Einordnung alsVegetationstag

Messungen an benachbarten Tagen: Zur Jahresaggregation 2022
Tabelle aller Messwerte
UhrzeitTemperatur [°C]Luftdruck [mBar]SonneWind [km/h]RichtungRegen [l/m²]rF [%]CO2 [ppm]
00:01:48 10 980 0 1 S 0 95.8 729
00:04:49 10 980 0 1 SO 0 95.9 729
00:07:49 10 980 0 1 SO 0 96.2 731
00:10:49 10 980 0 5 SO 0 96.6 730
00:13:47 10 980 0 2 S 0 96.6 730
00:16:48 10 980 0 2 SO 0 96.6 734
00:19:47 10 980 0 7 W 0 96.6 736
00:22:47 10 979 0 0 SW 0 96.6 736
00:25:47 10 980 0 4 S 0 96.6 738
00:28:46 10 980 0 11 S 0 96.6 732
00:31:45 10 980 0 6 SO 0 96.6 741
00:34:46 10 980 0 0 O 0 96.6 740
00:37:48 10 980 0 0 SO 0 96.5 746
00:40:46 10 979 0 4 SO 0 96.6 746
00:43:47 10 980 0 1 S 0 96.3 743
00:46:48 10 980 0 0 W 0 96.2 747
00:49:48 10 979 0 0 S 0 96.2 746
00:52:46 10 979 0 4 S 0 96.4 757
00:55:47 10 979 0 5 SO 0 96.6 752
00:58:46 10 980 0 0 SO 0 96.5 749
01:01:46 10 980 0 0 S 0 96.3 752
01:04:45 10 979 0 1 SO 0 96.2 743
01:07:47 10 979 0 0 SO 0 96.2 746
01:10:48 10 979 0 0 SO 0 96.3 748
01:13:50 10 979 0 2 SO 0 96.4 752
01:16:48 10 979 0 0 SO 0 96.6 794
01:19:46 10 979 0 1 S 0 96.6 783
01:22:57 10 979 0 4 S 0 96.6 797
01:25:50 10 979 0 4 SO 0 96.6 799
01:28:45 10 978 0 2 S 0 96.6 797
01:31:48 10 979 0 1 S 0.2575 96.6 799
01:34:46 10 978 0 5 S 0 96.6 803
01:37:47 10 979 0 4 S 0 96.6 803
01:40:46 10 978 0 1 S 0 96.6 800
01:43:45 10 978 0 0 S 0.2575 96.6 795
01:46:48 10 979 0 5 SW 0 96.6 794
01:49:48 10 978 0 3 SO 0 96.6 796
01:52:47 10 978 0 0 SO 0 96.6 785
01:55:46 10 978 0 1 S 0 96.6 784
01:58:47 10 979 0 2 0 96.6 776
02:01:45 10 978 0 2 S 0 96.6 772
02:04:48 10 979 0 0 SO 0.2575 96.6 774
02:07:46 10 978 0 3 S 0 96.6 769
02:10:48 10 978 0 2 SO 0 96.6 769
02:13:47 10 978 0 6 S 0 96.6 766
02:16:47 10 979 0 5 S 0 96.6 764
02:19:47 10 978 0 0 W 0 96.6 752
02:22:46 10 978 0 2 S 0 96.6 753
02:25:47 10 978 0 3 SO 0 96.6 749
02:28:44 10 978 0 1 S 0 96.6 749
02:31:46 10 978 0 0 S 0 96.6 752
02:34:47 10 978 0 2 SW 0 96.6 749
02:37:48 10 978 0 3 S 0 96.6 748
02:40:47 10 977 0 2 SO 0 96.6 750
02:43:46 10 978 0 6 S 0 96.6 748
02:46:46 10 977 0 3 SW 0 96.6 744
02:49:45 10 978 0 4 S 0 96.6 748
02:52:46 10 978 0 1 SW 0 96.6 748
02:55:47 10 977 0 3 SW 0 96.6 755
02:58:47 10 978 0 4 SW 0 96.6 756
03:01:46 10 978 0 5 SO 0 96.6 757
03:04:47 10 977 0 1 SO 0 96.6 762
03:07:45 10 977 0 2 S 0 96.6 759
03:10:49 10 977 0 1 SO 0 96.6 757
03:13:47 10 978 0 4 SO 0 96.6 756
03:16:45 10 977 0 5 S 0 96.6 755
03:19:47 10 977 0 1 SO 0 96.6 759
03:22:47 10 977 0 2 SO 0 96.6 756
03:25:46 10 977 0 3 SO 0 96.6 750
03:28:47 10 978 0 2 SO 0 96.6 747
03:31:46 10 977 0 4 S 0 96.6 750
03:34:48 10 977 0 5 S 0 96.6 757
03:37:48 10 977 0 3 SO 0 96.6 756
03:40:46 10 977 0 0 S 0 96.6 758
03:43:45 10 977 0 4 SO 0 96.6 761
03:46:47 10 977 0 4 S 0 96.6 768
03:49:48 10 977 0 2 S 0 96.6 764
03:52:45 10 977 0 4 S 0 96.6 764
03:55:44 10 977 0 7 S 0 96.6 767
03:58:44 10 976 0 7 S 0 96.6 774
04:01:47 10 976 0 7 SW 0 96.6 767
04:04:45 10 977 0 6 S 0 96.6 767
04:07:48 10 976 0 6 SO 0.2575 96.6 768
04:10:46 10 977 0 3 SO 0 96.6 772
04:13:45 10 977 0 4 SW 0 96.6 776
04:16:45 10 977 0 4 SO 0 96.6 778
04:19:47 10 977 0 3 O 0 96.6 778
04:22:44 10 977 0 5 S 0 96.6 776
04:25:46 10 976 0 2 SW 0 96.6 770
04:28:48 10 977 0 4 S 0 96.6 768
04:31:45 10 977 0 5 S 0 96.6 774
04:34:48 10 977 0 2 SO 0 96.6 780
04:37:47 10 976 0 2 SO 0 96.6 787
04:40:47 10 977 0 3 SW 0 96.6 790
04:43:48 10 976 0 3 S 0 96.6 791
04:46:49 10 977 0 4 SO 0 96.6 790
04:49:46 10 976 0 1 SO 0 96.6 788
04:52:45 10 977 0 1 S 0 96.6 783
04:55:46 10 977 0 5 S 0 96.6 792
04:58:43 10 977 0 1 S 0 96.6 796
05:01:48 10 976 0 4 SO 0 96.6 803
05:04:48 10 977 0 5 SO 0 96.6 803
05:07:46 10 977 0 3 SW 0 96.6 803
05:10:46 10 977 0 4 S 0 96.6 797
05:13:46 10 977 0 1 S 0 96.6 790
05:16:47 10 976 0 3 S 0 96.6 794
05:19:47 10 976 0 6 SO 0 96.6 794
05:22:45 10 976 0 3 SO 0 96.6 800
05:25:45 10 977 0 1 S 0 96.6 803
05:28:46 10 976 0 3 SO 0 96.6 803
05:31:49 10 976 0 1 SO 0 96.6 806
05:34:46 10 976 0 4 S 0 96.6 794
05:37:45 10 976 0 0 S 0 96.6 795
05:40:47 10 976 0 0 SO 0 96.6 800
05:43:47 10 977 0 2 SO 0 96.6 803
05:46:46 10 977 0 3 SO 0 96.6 804
05:49:45 10 976 0 2 SO 0.2575 96.6 814
05:52:45 10 977 0 1 SO 0 96.6 807
05:55:45 10 976 0 1 SO 0 96.6 796
05:58:47 10 976 0 0 SO 0 96.6 790
06:01:49 10 977 0 0 SO 0 96.6 799
06:04:46 10 976 0 1 SO 0 96.6 811
06:07:46 10 976 0 2 SO 0 96.6 817
06:10:46 10 976 0 4 S 0 96.6 820
06:13:46 10 976 0 1 S 0 96.6 817
06:16:48 10 976 0 1 SO 0 96.6 805
06:19:46 10 977 0 2 S 0 96.6 806
06:22:46 10 976 0 0 SO 0 96.6 802
06:25:47 10 976 0 2 SO 0.2575 96.6 796
06:28:47 10 976 0 3 S 0 96.6 786
06:31:46 10 976 0 4 S 0 96.6 790
06:34:47 10 976 0 3 SO 0 96.6 788
06:37:48 10 976 0 0 S 0 96.6 790
06:40:47 10 976 0 2 SO 0 96.6 792
06:43:48 10 976 0 0 SO 0 96.6 785
06:46:47 10 976 0 0 SO 0 96.6 782
06:49:46 10 976 0 0 SO 0 96.6 782
06:52:46 10 976 0 0 SO 0 96.6 787
06:55:47 10 976 4 1 S 0 96.6 783
06:58:47 10 976 7 1 SO 0 96.6 789
07:01:46 10 976 10 2 SW 0 96.6 790
07:04:46 10 976 14 1 SO 0 96.6 790
07:07:48 10 976 20 1 SO 0 96.6 787
07:10:46 10 976 27 3 SO 0 96.6 787
07:13:49 10 976 32 2 SO 0 96.6 782
07:16:46 10 976 31 1 SO 0 96.6 778
07:19:47 10 976 32 5 S 0 96.6 778
07:22:48 10 976 35 3 NW 0 96.6 783
07:25:47 10 976 36 0 NW 0 96.6 782
07:28:47 10 977 50 0 W 0 96.6 782
07:31:45 10 976 58 0 S 0 96.6 785
07:34:47 10 976 59 0 SO 0 96.6 788
07:37:46 10 977 64 0 SW 0 96.6 793
07:40:46 10 977 77 0 O 0 96.6 796
07:43:49 10 976 74 0 O 0 96.6 803
07:46:45 10 976 93 0 S 0 96.6 801
07:49:47 10 977 129 2 SW 0 96.6 799
07:52:48 10 977 95 2 W 0 96.6 797
07:55:48 10 976 104 1 S 0 96.6 805
07:58:50 10 976 134 4 SW 0 96.6 811
08:01:50 10 976 143 2 W 0 96.6 815
08:04:50 10 976 132 1 SW 0 96.6 820
08:07:51 10 976 134 1 S 0.2575 96.6 812
08:10:46 10 977 119 3 W 0 96.6 817
08:13:50 10 976 117 1 SW 0 96.6 821
08:16:47 10 977 111 0 SW 0.2575 96.6 829
08:19:50 10 976 144 0 NO 0.2575 96.6 822
08:22:49 10 977 154 5 SO 0 96.6 822
08:25:47 10 977 158 0 W 0 96.6 820
08:28:49 10 977 166 1 SO 0 96.6 822
08:31:49 10 976 162 3 W 0 96.6 827
08:34:47 10 976 145 1 SW 0 96.6 830
08:37:48 10 977 141 1 SW 0 96.6 837
08:40:46 10 976 155 0 O 0 96.6 843
08:43:48 10 977 158 3 NW 0 96.6 843
08:46:48 10 977 166 1 SW 0 96.6 840
08:49:47 10 976 161 0 SW 0.2575 96.6 844
08:52:48 10 977 157 4 SW 0 96.6 848
08:55:48 10 977 164 10 S 0 96.6 849
08:58:49 10 976 164 0 W 0 96.6 849
09:01:48 10 978 161 0 NO 0 96.6 850
09:04:49 10 977 166 2 SO 0 96.6 847
09:07:47 10 977 150 0 SO 0 96.6 846
09:10:46 10 977 168 1 W 0 96.6 840
09:13:50 10 977 167 0 NW 0 96.6 832
09:16:46 10 977 170 0 S 0 96.6 823
09:19:49 10 977 173 0 SW 0.2575 96.6 812
09:22:48 10 978 176 3 S 0 96.6 814
09:25:48 10 978 181 0 S 0.2575 96.6 810
09:28:50 10 977 186 5 SW 0 96.6 810
09:31:48 10 977 190 1 SO 0 96.6 806
09:34:48 10 978 190 4 SW 0 96.6 807
09:37:47 10 977 184 0 SO 0 96.6 805
09:40:47 10 977 183 8 S 0.2575 96.6 808
09:43:45 10 977 178 3 S 0 96.6 817
09:46:47 10 977 174 5 S 0 96.6 828
09:49:47 10 977 167 0 S 0.2575 96.6 844
09:52:48 10 978 168 0 SO 0 96.6 846
09:55:49 10 978 171 1 SO 0 96.6 847
09:58:49 10 978 175 1 S 0 96.6 858
10:01:48 10 978 183 4 SW 0.2575 96.6 864
10:04:48 10 978 184 8 NW 0 96.6 864
10:07:50 10 978 193 3 SW 0.2575 96.6 862
10:10:49 10 978 191 1 SW 0 96.6 881
10:13:47 10 977 193 2 SW 0 96.6 884
10:16:49 10 979 204 3 SW 0 96.6 890
10:19:47 10 977 207 0 S 0.2575 96.6 889
10:22:47 10 978 197 0 S 0 96.6 891
10:25:48 10 978 149 1 SW 0 96.6 894
10:28:47 10 978 155 0 S 0.2575 96.6 892
10:31:49 10 978 177 12 SO 0 96.6 900
10:34:50 10 978 174 1 SW 0.2575 96.6 901
10:37:51 10 978 181 0 S 0 96.6 895
10:40:47 10 978 190 0 S 0.2575 96.6 894
10:43:48 10 979 191 0 S 0 96.6 901
10:46:47 10 978 188 1 S 0 96.6 907
10:49:47 10 977 188 5 S 0 96.6 924
10:52:48 10 978 178 0 S 0 96.6 920
10:55:46 10 979 171 0 0 96.6 927
10:58:47 10 978 172 0 SO 0 96.6 926
11:01:46 10 978 174 0 S 0 96.6 934
11:04:49 10 978 185 0 SO 0 96.6 930
11:07:47 10 979 184 0 O 0 96.6 951
11:10:49 10 978 187 0 W 0 96.6 967
11:13:47 10 978 178 0 S 0 96.6 964
11:16:47 10 979 197 0 S 0.2575 96.6 956
11:19:48 10 978 181 1 W 0.2575 96.6 951
11:22:50 10 978 193 0 NO 0 96.6 958
11:25:49 10 979 199 3 S 0 96.6 969
11:28:50 10 978 211 11 SO 0 96.6 967
11:31:46 10 979 214 1 W 0 96.6 966
11:34:47 10 979 214 2 S 0.2575 96.6 965
11:37:46 10 978 216 1 O 0 96.6 967
11:40:47 11 979 199 2 S 0 96.6 985
11:43:47 11 978 186 0 S 0 96.6 989
11:46:46 11 979 197 2 S 0 96.6 994
11:49:48 10 979 202 0 W 0 96.6 984
11:52:46 10 979 208 1 O 0.2575 96.6 981
11:55:48 10 978 212 5 SW 0 96.6 984
11:58:46 10 979 212 3 S 0 96.6 979
12:01:49 10 978 213 1 N 0 96.6 995
12:04:48 10 979 210 2 W 0 96.6 993
12:07:48 11 979 216 5 SO 0 96.6 1002
12:10:48 11 978 218 0 NW 0 96.6 997
12:13:51 11 977 217 0 NW 0 96.6 1010
12:16:48 11 979 218 0 SW 0 96.6 1007
12:19:49 11 979 219 0 NO 0 96.6 1015
12:22:48 11 979 221 0 NO 0 96.6 1031
12:25:49 11 979 222 0 SO 0 96.6 1046
12:28:47 11 979 224 0 S 0 96.6 1045
12:31:48 11 979 222 0 SO 0 96.6 1045
12:34:47 11 978 223 0 S 0 96.6 1045
12:37:50 12 979 217 0 S 0 96.6 1039
12:40:48 12 979 208 0 O 0 96.6 1041
12:43:47 11 979 213 0 O 0 96.6 1036
12:46:50 11 979 203 0 S 0 96.6 1037
12:49:48 11 979 221 0 S 0 96.6 1043
12:52:48 11 978 225 0 S 0 96.6 1058
12:55:50 12 979 225 0 NW 0 96.6 1068
12:58:49 13 979 221 5 S 0 96.6 1083
13:01:49 13 980 213 2 SO 0 96.6 1083
13:04:49 13 979 215 1 SW 0 96.6 1073
13:07:48 13 979 187 1 NO 0 96.6 1075
13:10:48 12 979 157 3 W 0 96.6 1058
13:13:55 12 979 209 5 S 0 96.6 1020
13:16:48 12 979 220 4 W 0 96.6 1008
13:19:50 12 980 213 4 SW 0 96.6 1011
13:22:49 12 979 208 2 SO 0 96.6 1031
13:25:50 12 979 224 11 SW 0 96.6 1027
13:28:48 12 979 230 0 W 0 96.6 1046
13:31:51 13 979 229 2 SW 0 96.6 1052
13:34:50 14 979 225 0 NW 0 96.6 1054
13:37:49 14 979 220 3 S 0 96.4 1058
13:40:50 14 980 215 5 SO 0 95.4 1072
13:43:48 13 978 218 2 W 0 95 1082
13:46:48 13 979 211 3 S 0 95 1093
13:49:47 13 979 193 2 SO 0 95 1090
13:52:47 13 979 177 1 S 0 95 1087
13:55:49 12 979 185 0 NW 0 95.2 1085
13:58:49 12 979 191 3 SW 0 95.9 1096
14:01:50 12 979 191 2 SO 0 96.5 1096
14:04:49 11 979 196 1 S 0 96.6 1082
14:07:49 11 980 205 3 W 0 96.6 1085
14:10:51 11 980 206 6 W 0 96.6 1093
14:13:48 11 979 203 8 S 0.2575 96.6 1099
14:16:49 10 979 213 7 SO 0 96.6 1113
14:19:48 10 979 217 0 SW 0 96.6 1115
14:22:48 10 979 222 5 SW 0 96.6 1116
14:25:48 10 980 228 4 SW 0 96.6 1115
14:28:50 11 980 228 3 W 0 96.6 1109
14:31:48 11 980 229 1 N 0 96.6 1107
14:34:49 11 980 229 4 NW 0 96.6 1119
14:37:47 11 980 228 1 S 0 96.6 1139
14:40:49 11 979 230 3 S 0 96.6 1153
14:43:49 11 980 230 2 SW 0 96.6 1154
14:46:48 11 980 232 4 NW 0 96.6 1165
14:49:49 11 979 241 10 SO 0 96.6 1150
14:52:47 12 979 242 4 N 0 96.6 1143
14:55:47 13 980 244 4 S 0 96.6 1148
14:58:48 14 979 237 1 S 0 96.6 1104
15:01:47 14 980 204 3 S 0 92.3 610
15:04:48 13 979 216 10 W 0 91.8 594
15:07:47 12 980 228 4 O 0 90.7 615
15:10:49 12 980 223 8 S 0 92 606
15:13:47 12 979 235 6 SW 0 92.2 556
15:16:46 12 980 230 3 O 0 93.1 525
15:19:51 12 980 232 4 SW 0 93.9 504
15:22:46 12 980 243 6 O 0 95.3 495
15:25:48 13 980 229 3 S 0 95.5 474
15:28:47 13 980 226 2 O 0 94.2 457
15:31:48 13 980 228 5 S 0 92.5 439
15:34:49 13 980 228 5 NW 0 91.8 427
15:37:49 13 980 229 3 SW 0 91.9 427
15:40:47 13 980 231 6 SO 0 92.2 417
15:43:47 12 980 231 8 S 0 91.7 407
15:46:53 12 980 238 2 SW 0 91.1 404
15:49:46 12 980 237 2 NW 0 91.8 407
15:52:47 12 980 239 3 SO 0 93 404
15:55:48 12 980 233 1 SO 0 94.4 404
15:58:49 12 980 220 4 S 0 93.7 405
16:01:49 12 980 229 3 SW 0 92.9 404
16:04:50 12 980 228 0 SW 0 93.4 402
16:07:47 12 980 248 1 O 0 93.6 404
16:10:49 12 980 245 12 0 93.1 407
16:13:48 12 980 235 2 O 0 92.2 407
16:16:47 12 980 225 9 W 0 92.2 407
16:19:48 12 980 223 3 S 0 91.1 404
16:22:48 12 980 223 1 NW 0 90.6 407
16:25:47 12 980 238 2 W 0 91.3 404
16:28:47 12 980 230 4 W 0 92.5 404
16:31:50 12 980 225 8 N 0 91.9 406
16:34:48 12 980 223 1 W 0 89.5 404
16:37:47 12 980 222 3 O 0 88.4 407
16:40:49 11 980 220 0 SO 0 88.4 408
16:43:47 11 980 224 0 SW 0 88.6 407
16:46:49 11 980 227 2 SW 0 89.9 404
16:49:52 12 980 230 2 NW 0 90.4 404
16:52:48 13 980 220 3 NO 0 90.2 407
16:55:48 13 980 214 2 NO 0 88.5 407
16:58:49 13 980 219 2 S 0 85.2 405
17:01:47 12 980 222 5 NO 0 85.4 407
17:04:46 12 980 223 2 S 0 86.1 407
17:07:48 12 980 220 3 NO 0 88.4 407
17:10:47 11 981 224 1 S 0 89.2 406
17:13:47 11 980 226 4 S 0 90.2 407
17:16:47 11 980 226 5 O 0 91.5 416
17:19:52 11 980 226 2 NW 0 92.2 425
17:22:47 11 980 222 2 W 0 92.2 434
17:25:48 11 980 219 2 O 0 93.1 459
17:28:46 11 980 216 2 W 0 93.7 468
17:31:50 11 980 216 1 SW 0 93.7 480
17:34:45 11 981 219 1 N 0 93.8 487
17:37:48 10 980 221 1 W 0 93.7 502
17:40:48 10 980 224 5 SO 0 94.6 495
17:43:49 10 980 220 2 W 0 95.3 506
17:46:46 10 980 213 1 W 0 95.1 521
17:49:47 10 981 204 0 SW 0 94.2 531
17:52:47 10 980 171 0 S 0 93.9 535
17:55:47 10 981 151 1 SW 0 94.3 531
17:58:47 10 980 177 4 SO 0 94.5 544
18:01:47 10 980 188 1 SO 0 94.7 550
18:04:49 10 980 189 1 NO 0 94.7 565
18:07:51 10 980 185 0 SO 0 94.8 569
18:10:47 10 980 172 1 O 0 94.8 577
18:13:46 10 981 165 1 S 0 94.9 574
18:16:46 10 981 155 0 W 0 95.3 582
18:19:47 10 981 147 1 SW 0 95.5 582
18:22:47 10 980 136 2 S 0 95.6 597
18:25:51 10 980 123 0 SO 0 95.2 599
18:28:46 9 981 122 0 S 0 95.3 606
18:31:46 9 980 125 1 S 0 95.5 617
18:34:48 9 981 132 2 SW 0 95.4 621
18:37:48 9 980 126 0 SO 0 95.7 625
18:40:47 9 980 133 2 SW 0 95.8 629
18:43:49 9 981 130 2 S 0 96 631
18:46:47 9 981 107 5 W 0 96.2 630
18:49:46 9 981 79 1 SO 0 96.3 633
18:52:53 9 981 72 1 SW 0 96.6 628
18:55:48 9 981 83 2 SW 0 96.6 649
18:58:46 9 981 71 3 SW 0 96.6 650
19:01:47 9 981 66 6 SO 0 96.6 661
19:04:47 9 981 57 4 S 0 96.6 659
19:07:47 9 980 43 3 S 0 96.5 657
19:10:46 9 981 31 0 SO 0 96.3 659
19:13:47 9 981 21 2 S 0 96.4 662
19:16:46 9 981 14 2 SO 0 96.6 671
19:19:47 9 980 10 4 W 0 96.6 671
19:22:45 9 980 8 0 O 0 96.6 671
19:25:46 9 981 5 0 SW 0 96.6 674
19:28:46 8 980 4 2 S 0 96.6 673
19:31:45 8 981 0 0 W 0 96.6 669
19:34:45 8 981 0 3 W 0 96.6 679
19:37:47 8 981 0 0 S 0 96.6 682
19:40:45 8 981 0 0 S 0 96.6 684
19:43:47 8 980 0 1 S 0 96.6 691
19:46:45 8 980 0 2 S 0 96.6 702
19:49:46 8 980 0 1 SO 0 96.6 703
19:52:46 8 981 0 0 SO 0 96.6 709
19:55:45 8 981 0 0 SO 0 96.6 711
19:58:46 8 981 0 2 W 0 96.6 725
20:01:46 8 980 0 0 S 0 96.6 737
20:04:48 8 981 0 0 SO 0 96.6 740
20:07:47 8 980 0 0 SO 0 96.6 729
20:10:47 8 981 0 0 SO 0.2575 96.6 728
20:13:47 8 981 0 0 SW 0 96.6 729
20:16:46 8 981 0 0 SW 0 96.6 736
20:19:46 8 980 0 0 S 0 96.6 745
20:22:45 8 981 0 0 S 0 96.6 746
20:25:47 8 981 0 0 S 0 96.6 745
20:28:47 8 981 0 0 SO 0 96.6 747
20:31:47 8 980 0 0 SO 0 96.6 751
20:34:49 8 981 0 0 SO 0 96.6 755
20:37:47 8 981 0 0 W 0 96.6 758
20:40:45 8 981 0 0 O 0 96.6 763
20:43:45 8 981 0 0 SO 0 96.6 763
20:46:44 8 981 0 0 S 0 96.6 765
20:49:46 8 980 0 1 S 0 96.6 771
20:52:46 8 981 0 2 SW 0 96.6 770
20:55:45 8 981 0 5 S 0 96.6 776
20:58:49 8 980 0 1 W 0 96.6 773
21:01:45 8 981 0 0 W 0 96.6 776
21:04:45 8 981 0 1 W 0 96.6 781
21:07:46 8 980 0 4 SW 0 96.6 787
21:10:49 8 981 0 2 NW 0 96.6 785
21:13:47 8 981 0 6 W 0 96.6 792
21:16:45 8 981 0 0 O 0 96.6 793
21:19:47 8 980 0 1 SW 0 96.6 796
21:22:46 8 981 0 1 S 0 96.6 803
21:25:46 8 981 0 0 S 0 96.6 809
21:28:47 8 981 0 1 S 0 96.6 801
21:31:48 8 981 0 0 SO 0 96.6 802
21:34:47 8 981 0 0 S 0 96.6 805
21:37:45 8 981 0 0 S 0 96.6 802
21:40:47 8 981 0 0 S 0 96.6 807
21:43:46 8 981 0 0 S 0 96.6 816
21:46:48 8 981 0 0 S 0 96.6 817
21:49:47 8 981 0 0 S 0 96.6 826
21:52:48 8 981 0 1 SW 0 96.6 827
21:55:47 8 981 0 1 W 0 96.6 821
21:58:47 8 982 0 0 SW 0 96.6 821
22:01:47 8 981 0 0 SO 0 96.6 826
22:04:48 8 980 0 0 SO 0 96.6 827
22:07:46 8 981 0 0 S 0 96.6 823
22:10:48 8 981 0 0 S 0 96.6 825
22:13:48 8 981 0 0 SW 0 96.6 832
22:16:48 8 980 0 0 SW 0 96.6 838
22:19:46 8 981 0 0 W 0 96.6 838
22:22:45 8 981 0 0 S 0 96.6 838
22:25:48 8 981 0 0 S 0 96.6 842
22:28:57 8 981 0 0 S 0 96.6 843
22:31:47 8 981 0 0 SW 0 96.6 843
22:34:46 8 981 0 0 S 0 96.6 839
22:37:49 8 980 0 0 SO 0 96.6 840
22:40:49 8 981 0 0 SW 0 96.6 837
22:43:47 8 981 0 0 SO 0 96.6 843
22:46:46 8 981 0 0 SW 0 96.6 849
22:49:47 8 981 0 0 W 0 96.6 852
22:52:46 8 981 0 0 S 0 96.6 848
22:55:49 8 981 0 0 S 0 96.4 851
22:58:45 8 981 0 0 S 0 96.6 848
23:01:47 8 981 0 0 SO 0 96.6 849
23:04:45 8 981 0 0 O 0 96.6 843
23:07:49 8 980 0 0 NW 0 96.6 845
23:10:49 8 980 0 0 SO 0 96.6 850
23:13:47 8 980 0 0 SW 0 96.6 855
23:16:47 8 981 0 0 S 0 96.6 858
23:19:48 8 980 0 0 NO 0 96.6 863
23:22:47 8 981 0 0 S 0 96.6 864
23:25:49 8 981 0 0 S 0 96.6 852
23:28:44 8 981 0 0 S 0 96.6 851
23:31:47 8 981 0 0 W 0 96.6 858
23:34:47 8 981 0 0 S 0 96.6 867
23:37:47 8 981 0 0 SW 0 96.6 863
23:40:46 8 981 0 0 S 0 96.6 861
23:43:46 8 981 0 0 SO 0 96.6 873
23:46:45 8 980 0 0 S 0 96.6 884
23:49:48 8 981 0 0 SO 0 96.6 882
23:52:47 8 981 0 0 SW 0 96.6 870
23:55:47 8 981 0 0 SO 0 96.6 875
23:58:49 8 980 0 0 SO 0 96.6 880

Letzte Änderung : 22-Jul-2022
Copyright Jens Köhler, Wolfsburg, Obere Dorfstraße 10d